Location: Albany
(35.0000°S, 118.0000°E)
Time: 17:29:49
(UTC-04:00)

Amateur Radio Satellites - All Passes

Search period start: 22 May 2017 16:59
Search period end: 23 May 2017 16:59
Location: Albany, 35.0000°S, 118.0000°E

Satellite Date Start Highest point End Downlink Frequencies (MHz)
Time Altitude Azimuth
BEESAT 2 22 May 17:19:08 17:19:41 10° 288° (WNW) 17:20:13 435.950
XW-2D 22 May 17:24:29 17:28:16 64° 103° (ESE) 17:32:06 145.860 - 145.880
XW-2B 22 May 17:32:15 17:36:05 79° 104° (ESE) 17:39:56 145.730 - 145.750
DOVE 4 22 May 17:36:39 17:41:07 51° 279° (W) 17:45:58 437.250
KKS-1 22 May 17:40:02 17:43:53 28° 250° (WSW) 17:47:42 437.445
XW-2C 22 May 17:45:42 17:49:31 66° 280° (W) 17:53:21 145.795 - 145.815
XW-2F 22 May 17:48:21 17:52:07 64° 281° (WNW) 17:55:57 145.980 - 146.000
NUDT-PHONESAT 22 May 18:02:06 18:05:47 51° 280° (W) 18:09:29 437.300
KAITUO 1B 22 May 18:04:05 18:07:43 47° 279° (W) 18:11:24 145.475/437.950
HO-68 22 May 18:04:33 18:11:12 42° 113° (ESE) 18:17:54 435.675
CUBEBUG 2 22 May 18:06:10 18:08:29 14° 114° (ESE) 18:10:48 437.445
CUTE-I 22 May 18:10:38 18:15:51 51° 280° (W) 18:21:09 437.470
XW-2A 22 May 18:13:07 18:15:52 22° 108° (ESE) 18:18:37 145.665 - 145.685
CUTE 1.7 + AOD 2 22 May 18:14:52 18:18:35 30° 108° (ESE) 18:22:19 437.475
LilacSat-2 22 May 18:19:21 18:22:25 23° 276° (W) 18:25:32 437.200
STARS 22 May 18:24:35 18:27:58 21° 248° (WSW) 18:31:19 437.465
UWE-3 22 May 18:26:35 18:28:43 13° 114° (ESE) 18:30:52 435.000/436.395/437.385
NO-84 22 May 18:35:34 18:38:08 17° 304° (WNW) 18:40:48 435.350 FM
AAUSAT CUBESAT 2 22 May 18:51:49 18:55:05 23° 110° (ESE) 18:58:22 437.432
SEEDS 22 May 19:12:31 19:16:43 85° 280° (W) 19:20:58 437.485
Oscar 11 22 May 19:17:12 19:20:05 18° 112° (ESE) 19:22:59 .
PCSat 22 May 19:24:53 19:30:17 77° 66° (ENE) 19:35:44 145.827
STRAND 1 22 May 19:30:20 19:35:32 75° 78° (ENE) 19:40:39 437.568
AO-73 22 May 19:36:52 19:41:05 38° 107° (ESE) 19:45:17 145.935
CUBEBUG 2 22 May 19:39:50 19:44:32 57° 280° (W) 19:49:17 437.445
XW-2A 22 May 19:46:17 19:48:31 16° 275° (W) 19:50:47 145.665 - 145.685
ZACube-1 22 May 19:47:44 19:52:14 57° 105° (ESE) 19:56:43 437.345
ISS 22 May 19:51:17 19:51:24 10° 54° (NE) 19:51:32 437.550
CUTE 1.7 + AOD 2 22 May 19:51:28 19:54:25 18° 274° (W) 19:57:23 437.475
HO-68 22 May 19:52:39 19:58:55 32° 277° (W) 20:05:17 435.675
DELFI C3 22 May 19:54:59 19:55:48 11° 114° (ESE) 19:56:36 145.870
UWE-3 22 May 20:00:02 20:04:38 57° 280° (W) 20:09:16 435.000/436.395/437.385
Tancredo 1 22 May 20:01:17 20:03:45 22° 50° (NE) 20:06:13 437.200
AAUSAT CUBESAT 2 22 May 20:27:06 20:30:24 23° 275° (W) 20:33:45 437.432
M-CUBED/EXP-1 PRIME 22 May 20:31:25 20:36:05 73° 74° (ENE) 20:40:46 437.505
Oscar 11 22 May 20:51:56 20:55:54 34° 278° (W) 20:59:55 .
EO-88 22 May 21:02:37 21:06:13 53° 104° (ESE) 21:09:52 145.990 - 145.960
PCSat 22 May 21:11:17 21:14:16 15° 228° (SW) 21:17:16 145.827
TIGRISAT 22 May 21:12:12 21:14:48 15° 87° (E) 21:17:22 435.000
STRAND 1 22 May 21:12:15 21:13:59 12° 242° (WSW) 21:15:43 437.568
AO-73 22 May 21:14:26 21:17:23 17° 273° (W) 21:20:20 145.935
ISS 22 May 21:24:13 21:27:28 61° 220° (SW) 21:30:47 437.550
DELFI C3 22 May 21:26:15 21:30:04 49° 279° (W) 21:33:57 145.870
ZACube-1 22 May 21:27:25 21:28:46 11° 271° (W) 21:30:08 437.345
PRISM 22 May 21:35:38 21:39:40 42° 81° (E) 21:43:39 437.425
Tancredo 1 22 May 21:36:43 21:39:25 27° 215° (SW) 21:42:09 437.200
UNISAT 6 22 May 21:41:18 21:45:25 37° 82° (E) 21:49:26 437.425
LO-87 22 May 22:00:59 22:04:17 33° 107° (ESE) 22:07:38 145.935 - 145.965
ESTCUBE 1 22 May 22:02:01 22:05:30 22° 111° (ESE) 22:09:00 437.505/2401.250
FO-29 22 May 22:03:35 22:10:15 66° 79° (E) 22:16:02 435.910
M-CUBED/EXP-1 PRIME 22 May 22:08:17 22:09:53 12° 240° (WSW) 22:11:29 437.505
SO-50 22 May 22:17:53 22:22:19 46° 65° (ENE) 22:26:52 436.795
TIGRISAT 22 May 22:47:31 22:51:38 38° 252° (WSW) 22:55:38 435.000
ISS 22 May 23:03:57 23:04:33 10° 203° (SSW) 23:05:10 437.550
EO-79 22 May 23:05:36 23:08:43 19° 85° (E) 23:11:47 145.935-145.965
PRISM 22 May 23:12:22 23:14:32 14° 246° (WSW) 23:16:40 437.425
VELOX 1 22 May 23:16:32 23:20:37 37° 108° (ESE) 23:24:45 145.980
YUBILEINY 22 May 23:18:29 23:21:42 12° 103° (ESE) 23:24:56 435.215
UNISAT 6 22 May 23:18:59 23:21:46 17° 247° (WSW) 23:24:30 437.425
LO-87 22 May 23:36:24 23:37:49 12° 273° (W) 23:39:14 145.935 - 145.965
ESTCUBE 1 22 May 23:38:12 23:42:05 29° 277° (W) 23:46:02 437.505/2401.250
AIST 2D 22 May 23:41:27 23:44:55 55° 256° (WSW) 23:48:21 435.315
SPROUT 22 May 23:44:01 23:48:20 79° 104° (ESE) 23:52:44 437.525
50 SAT 22 May 23:47:25 23:50:38 38° 106° (ESE) 23:53:53 437.505
FO-29 22 May 23:50:10 23:54:25 18° 240° (WSW) 23:58:22 435.910
NANOSAT C BR1 22 May 23:52:49 23:57:05 67° 79° (E) 00:01:16 145.865
POLYITAN 1 22 May 23:53:06 23:57:24 76° 79° (E) 00:01:37 437.675
SO-50 22 May 23:59:37 00:03:01 19° 229° (SW) 00:06:28 436.795
QB50P2 23 May 00:01:30 00:05:49 77° 258° (WSW) 00:10:01 145.880/145.840
DUCHIFAT 1 23 May 00:05:58 00:10:15 87° 78° (ENE) 00:14:28 145.980
DX 1 23 May 00:06:19 00:10:31 47° 107° (ESE) 00:14:47 434.975-435.025
UKube-1 23 May 00:08:03 00:11:56 33° 109° (ESE) 00:15:52 .
EO-79 23 May 00:40:45 00:44:27 29° 251° (WSW) 00:48:06 145.935-145.965
BUGSAT 1 23 May 00:41:57 00:46:08 66° 80° (E) 00:50:13 437.445
VELOX 1 23 May 00:54:21 00:57:09 16° 274° (W) 00:59:59 145.980
Oscar 19 23 May 00:55:07 00:59:39 29° 83° (E) 01:04:09 437.125/150
RS-15 23 May 01:01:21 01:10:55 34° 74° (ENE) 01:20:14 29.354- 29.394
YUBILEINY 23 May 01:08:09 01:17:00 81° 86° (E) 01:25:52 435.215
BEESAT 23 May 01:14:50 01:17:43 16° 115° (ESE) 01:20:36 436.000
MOZHAYETS 4 23 May 01:36:06 01:38:08 13° 115° (ESE) 01:40:11
Gurwin Techsat 1B 23 May 01:37:07 01:42:17 46° 81° (E) 01:47:22 435.225
UKube-1 23 May 01:45:02 01:47:59 18° 275° (W) 01:50:59 .
DX 1 23 May 01:45:03 01:46:55 12° 273° (W) 01:48:48 434.975-435.025
ITUPSAT 1 23 May 02:13:45 02:18:32 66° 105° (ESE) 02:23:21 437.325
Oscar 19 23 May 02:34:25 02:38:50 29° 249° (WSW) 02:43:15 437.125/150
BEESAT 23 May 02:50:24 02:55:01 48° 280° (W) 02:59:44 436.000
KKS-1 23 May 02:59:31 03:02:08 15° 114° (ESE) 03:04:45 437.445
YUBILEINY 23 May 03:08:59 03:14:44 19° 247° (WSW) 03:20:32 435.215
MOZHAYETS 4 23 May 03:10:13 03:14:45 56° 280° (W) 03:19:21
RS-15 23 May 03:11:42 03:22:36 59° 235° (SW) 03:33:21 29.354- 29.394
O/OREOS (USA 219) 23 May 03:12:33 03:15:48 20° 79° (E) 03:19:07 437.305
Gurwin Techsat 1B 23 May 03:18:01 03:21:50 20° 246° (WSW) 03:25:38 435.225
ITAMSAT 1 23 May 03:26:03 03:31:19 70° 78° (ENE) 03:36:29 435.822/435.867
AO-7 23 May 03:28:53 03:37:10 60° 76° (ENE) 03:45:19 .
JUGNU 23 May 03:29:15 03:30:57 11° 14° (NNE) 03:32:37 437.505
STARS 23 May 03:41:50 03:44:55 19° 113° (ESE) 03:48:02 437.465
CUBESAT XI-V 23 May 03:44:47 03:49:17 54° 105° (ESE) 03:53:51 437.345
ISS 23 May 03:54:50 03:57:56 33° 144° (SE) 04:01:00 437.550
ITUPSAT 1 23 May 03:55:42 03:56:44 11° 271° (W) 03:57:45 437.325
AO-85 23 May 03:55:52 03:59:52 25° 71° (ENE) 04:04:05 145.980
Tancredo 1 23 May 04:03:47 04:06:55 67° 140° (SE) 04:10:02 437.200
PCSat 23 May 04:16:25 04:21:13 31° 124° (SE) 04:25:59 145.827
KKS-1 23 May 04:33:58 04:38:15 44° 279° (W) 04:42:36 437.445
O/OREOS (USA 219) 23 May 04:50:59 04:54:58 31° 244° (WSW) 04:59:00 437.305
ITAMSAT 1 23 May 05:07:45 05:10:07 13° 242° (WSW) 05:12:27 435.822/435.867
XW-2B 23 May 05:11:03 05:11:26 10° 88° (E) 05:11:49 145.730 - 145.750
JUGNU 23 May 05:15:29 05:19:11 17° 4° (N) 05:22:53 437.505
STARS 23 May 05:16:54 05:20:57 35° 278° (W) 05:25:04 437.465
AO-7 23 May 05:22:34 05:29:19 28° 239° (WSW) 05:36:02 .
XW-2C 23 May 05:22:40 05:25:01 16° 86° (E) 05:27:20 145.795 - 145.815
XW-2F 23 May 05:24:51 05:27:12 16° 86° (E) 05:29:32 145.980 - 146.000
CUBESAT XI-V 23 May 05:25:14 05:26:57 12° 271° (W) 05:28:40 437.345
BEESAT 2 23 May 05:27:41 05:30:27 19° 69° (ENE) 05:33:14 435.950
RS-15 23 May 05:31:12 05:37:55 18° 208° (SSW) 05:44:39 29.354- 29.394
ISS 23 May 05:31:46 05:34:15 19° 309° (NW) 05:36:44 437.550
AO-85 23 May 05:35:29 05:40:06 37° 234° (SW) 05:45:01 145.980
NUDT-PHONESAT 23 May 05:36:37 05:39:09 17° 85° (E) 05:41:41 437.300
DOVE 4 23 May 05:38:24 05:43:43 60° 80° (E) 05:48:50 437.250
KAITUO 1B 23 May 05:39:07 05:41:53 19° 85° (E) 05:44:37 145.475/437.950
LilacSat-2 23 May 05:54:56 05:58:37 44° 81° (E) 06:02:15 437.200
BEESAT 3 23 May 05:56:06 05:59:55 58° 239° (WSW) 06:03:43 437.485
PCSat 23 May 05:59:46 06:04:32 32° 288° (WNW) 06:09:15 145.827
CUTE-I 23 May 06:30:53 06:36:20 86° 77° (ENE) 06:41:41 437.470
XW-2D 23 May 06:34:17 06:38:00 51° 255° (WSW) 06:41:40 145.860 - 145.880
XW-2B 23 May 06:42:11 06:45:48 41° 254° (WSW) 06:49:23 145.730 - 145.750
STRAND 1 23 May 06:42:38 06:47:48 76° 105° (ESE) 06:53:02 437.568
SO-50 23 May 06:52:53 06:56:24 20° 131° (SE) 06:59:52 436.795
XW-2C 23 May 06:55:56 06:59:12 27° 252° (WSW) 07:02:26 145.795 - 145.815
XW-2F 23 May 06:58:05 07:01:19 27° 252° (WSW) 07:04:31 145.980 - 146.000
SEEDS 23 May 07:00:17 07:03:28 20° 85° (E) 07:06:37 437.485
JUGNU 23 May 07:03:52 07:07:28 17° 354° (N) 07:11:04 437.505
BEESAT 2 23 May 07:04:32 07:08:00 29° 235° (SW) 07:11:26 435.950
NUDT-PHONESAT 23 May 07:09:59 07:13:00 23° 252° (WSW) 07:15:58 437.300
XW-2A 23 May 07:10:09 07:13:18 34° 82° (E) 07:16:24 145.665 - 145.685
KAITUO 1B 23 May 07:12:51 07:15:47 22° 251° (WSW) 07:18:41 145.475/437.950
M-CUBED/EXP-1 PRIME 23 May 07:14:39 07:18:02 45° 111° (ESE) 07:21:43 437.505
DOVE 4 23 May 07:17:38 07:20:46 16° 245° (WSW) 07:23:51 437.250
HO-68 23 May 07:22:47 07:29:56 60° 78° (ENE) 07:36:59 435.675
LilacSat-2 23 May 07:31:44 07:32:26 10° 247° (WSW) 07:33:09 437.200
CUBEBUG 2 23 May 07:34:29 07:38:35 37° 83° (E) 07:42:31 437.445
SRMSAT 23 May 07:35:31 07:39:12 17° 7° (N) 07:42:54 437.500
CUTE 1.7 + AOD 2 23 May 07:37:54 07:42:13 84° 255° (WSW) 07:46:29 437.475
ZACube-1 23 May 07:41:17 07:43:18 13° 88° (E) 07:45:18 437.345
RS-15 23 May 07:53:20 07:57:11 12° 169° (SSE) 08:01:04 29.354- 29.394
UWE-3 23 May 07:53:23 07:57:22 35° 83° (E) 08:01:13 435.000/436.395/437.385
TIGRISAT 23 May 08:09:05 08:10:20 11° 116° (ESE) 08:11:35 435.000
FO-29 23 May 08:10:58 08:17:05 26° 117° (ESE) 08:23:13 435.910
AAUSAT CUBESAT 2 23 May 08:11:17 08:15:30 67° 80° (E) 08:19:40 437.432
NO-84 23 May 08:13:28 08:15:28 17° 56° (NE) 08:17:31 435.350 FM
CUTE-I 23 May 08:14:12 08:15:33 11° 241° (WSW) 08:16:54 437.470
PRISM 23 May 08:22:18 08:25:17 20° 111° (ESE) 08:28:17 437.425
STRAND 1 23 May 08:27:01 08:27:27 10° 271° (W) 08:27:55 437.568
SO-50 23 May 08:32:30 08:37:06 46° 294° (WNW) 08:41:37 436.795
SEEDS 23 May 08:35:28 08:39:06 27° 252° (WSW) 08:42:42 437.485
UNISAT 6 23 May 08:36:43 08:40:32 25° 111° (ESE) 08:44:21 437.425
Oscar 11 23 May 08:41:55 08:46:12 53° 80° (E) 08:50:26 .
XW-2A 23 May 08:45:29 08:45:39 10° 248° (WSW) 08:45:50 145.665 - 145.685
JUGNU 23 May 08:55:17 08:55:41 10° 345° (NNW) 08:56:05 437.505
AO-73 23 May 09:04:00 09:08:12 63° 256° (WSW) 09:12:18 145.935
DELFI C3 23 May 09:06:44 09:10:08 25° 84° (E) 09:13:29 145.870
HO-68 23 May 09:11:37 09:17:04 24° 242° (WSW) 09:22:29 435.675
CUBEBUG 2 23 May 09:12:09 09:14:49 16° 247° (WSW) 09:17:25 437.445
ZACube-1 23 May 09:15:46 09:19:46 40° 253° (WSW) 09:23:40 437.345
SRMSAT 23 May 09:23:45 09:27:40 18° 356° (N) 09:31:34 437.500
UWE-3 23 May 09:30:49 09:33:28 16° 247° (WSW) 09:36:04 435.000/436.395/437.385
TIGRISAT 23 May 09:41:40 09:46:22 70° 282° (WNW) 09:51:06 435.000
NO-84 23 May 09:50:21 09:52:47 23° 219° (SW) 09:55:21 435.350 FM
FO-29 23 May 09:53:44 10:01:23 65° 281° (W) 10:09:16 435.910
PRISM 23 May 09:56:51 10:00:20 27° 277° (W) 10:03:54 437.425
EO-79 23 May 09:57:05 09:57:51 10° 115° (ESE) 09:58:38 145.935-145.965
RS-15 23 May 10:04:53 10:14:37 34° 135° (SE) 10:24:37 29.354- 29.394
EO-88 23 May 10:08:02 10:11:44 69° 257° (WSW) 10:15:22 145.990 - 145.960
AIST 2D 23 May 10:12:33 10:15:37 27° 107° (ESE) 10:18:43 435.315
UNISAT 6 23 May 10:12:57 10:17:03 29° 276° (W) 10:21:10 437.425
Oscar 11 23 May 10:20:12 10:21:49 12° 246° (WSW) 10:23:25 .
NANOSAT C BR1 23 May 10:41:29 10:45:17 32° 108° (ESE) 10:49:08 145.865
DELFI C3 23 May 10:41:42 10:44:43 20° 250° (WSW) 10:47:43 145.870
POLYITAN 1 23 May 10:42:08 10:46:05 36° 108° (ESE) 10:50:04 437.675
QB50P2 23 May 10:50:18 10:54:28 49° 106° (ESE) 10:58:41 145.880/145.840
DUCHIFAT 1 23 May 10:54:08 10:58:07 40° 107° (ESE) 11:02:10 145.980
LO-87 23 May 11:04:04 11:07:46 69° 78° (ENE) 11:11:23 145.935 - 145.965
SRMSAT 23 May 11:13:49 11:16:05 12° 346° (NNW) 11:18:22 437.500
YUBILEINY 23 May 11:23:11 11:30:58 34° 106° (ESE) 11:38:37 435.215
BUGSAT 1 23 May 11:28:12 11:31:54 29° 109° (ESE) 11:35:40 437.445
EO-79 23 May 11:28:46 11:33:01 61° 281° (W) 11:37:20 145.935-145.965
ESTCUBE 1 23 May 11:33:03 11:37:39 75° 78° (ENE) 11:42:11 437.505/2401.250
SPROUT 23 May 11:34:09 11:37:01 17° 86° (E) 11:39:51 437.525
AIST 2D 23 May 11:47:00 11:48:51 13° 273° (W) 11:50:41 435.315
DX 1 23 May 12:00:28 12:01:27 11° 88° (E) 12:02:27 434.975-435.025
Oscar 19 23 May 12:08:47 12:13:16 31° 111° (ESE) 12:17:47 437.125/150
RS-15 23 May 12:16:45 12:27:47 70° 294° (WNW) 12:39:20 29.354- 29.394
NANOSAT C BR1 23 May 12:18:02 12:21:00 18° 274° (W) 12:24:01 145.865
POLYITAN 1 23 May 12:19:14 12:21:56 16° 274° (W) 12:24:40 437.675
QB50P2 23 May 12:28:58 12:30:29 12° 272° (W) 12:32:01 145.880/145.840
AO-85 23 May 12:31:32 12:33:52 13° 138° (SE) 12:36:09 145.980
DUCHIFAT 1 23 May 12:31:34 12:33:55 14° 273° (W) 12:36:17 145.980
AO-7 23 May 12:38:31 12:40:59 12° 131° (SE) 12:43:27 .
VELOX 1 23 May 12:45:37 12:50:07 68° 254° (WSW) 12:54:34 145.980
50 SAT 23 May 12:45:59 12:49:31 68° 79° (E) 12:53:00 437.505
Gurwin Techsat 1B 23 May 12:54:47 12:59:56 53° 107° (ESE) 13:05:11 435.225
BUGSAT 1 23 May 13:04:06 13:07:14 20° 275° (W) 13:10:24 437.445
SPROUT 23 May 13:09:04 13:12:58 33° 252° (WSW) 13:16:49 437.525
YUBILEINY 23 May 13:19:38 13:27:50 46° 268° (W) 13:35:58 435.215
O/OREOS (USA 219) 23 May 13:24:57 13:28:43 24° 118° (ESE) 13:32:28 437.305
UKube-1 23 May 13:33:33 13:37:59 85° 257° (WSW) 13:42:20 .
DX 1 23 May 13:33:34 13:37:56 56° 254° (WSW) 13:42:14 434.975-435.025
Oscar 19 23 May 13:48:15 13:52:30 26° 276° (W) 13:56:50 437.125/150
AO-85 23 May 14:09:54 14:15:11 87° 118° (ESE) 14:20:04 145.980
BEESAT 3 23 May 14:16:05 14:19:17 25° 126° (SE) 14:22:29 437.485
ITUPSAT 1 23 May 14:18:21 14:22:03 22° 85° (E) 14:25:42 437.325
AO-7 23 May 14:23:49 14:32:02 62° 112° (ESE) 14:40:17 .
RS-15 23 May 14:34:54 14:38:11 12° 277° (W) 14:41:32 29.354- 29.394
Gurwin Techsat 1B 23 May 14:36:54 14:40:09 16° 273° (W) 14:43:26 435.225
ITAMSAT 1 23 May 14:40:29 14:45:43 76° 105° (ESE) 14:51:02 435.822/435.867
BEESAT 23 May 14:53:36 14:58:20 54° 79° (E) 15:03:00 436.000
O/OREOS (USA 219) 23 May 15:04:07 15:08:03 28° 283° (WNW) 15:11:57 437.305
MOZHAYETS 4 23 May 15:08:30 15:12:53 42° 81° (E) 15:17:14
BEESAT 2 23 May 15:24:31 15:28:19 52° 121° (ESE) 15:32:05 435.950
CUBESAT XI-V 23 May 15:45:32 15:48:43 18° 86° (E) 15:51:55 437.345
BEESAT 3 23 May 15:53:47 15:56:42 21° 291° (WNW) 15:59:36 437.485
ITUPSAT 1 23 May 15:55:34 15:59:52 33° 250° (WSW) 16:04:07 437.325
CUTE-I 23 May 16:13:31 16:15:20 12° 119° (ESE) 16:17:09 437.470
AO-7 23 May 16:18:31 16:25:09 26° 276° (W) 16:31:51 .
ITAMSAT 1 23 May 16:24:44 16:25:40 10° 271° (W) 16:26:36 435.822/435.867
NO-84 23 May 16:25:12 16:28:45 38° 137° (SE) 16:32:33 435.350 FM
KKS-1 23 May 16:28:00 16:32:21 44° 81° (E) 16:36:38 437.445
BEESAT 23 May 16:33:07 16:35:35 14° 244° (WSW) 16:38:02 436.000
LilacSat-2 23 May 16:34:48 16:36:59 15° 111° (ESE) 16:39:11 437.200
DOVE 4 23 May 16:40:18 16:44:37 38° 109° (ESE) 16:49:15 437.250
MOZHAYETS 4 23 May 16:46:50 16:49:39 16° 247° (WSW) 16:52:28
